This demonstration page uses our WeatherBlox Daily Observations layout. Learn more.

Left ArrowRight Arrow

38.83388, -104.82136

Hourly Observations for May 31, 2018

Temp ( °F °C ) Dew Point ( °F °C ) Humidity (%) Winds ( mph kmh ) Pressure ( in mb ) Visibility ( mi km ) Precip ( " mm )
12:54 am 00:54 Partly Cloudy 57 13.9 46 7.8 67 67 Calm 29.75 1008 10 16 0.00 0.00
1:54 am 01:54 Clear 57 13.9 45 7.2 64 64 Calm 29.76 1008 10 16 0.00 0.00
2:54 am 02:54 Mostly Clear 53 11.7 45 7.2 74 74 Calm 29.80 1009 10 16 0.00 0.00
3:54 am 03:54 Clear 51 10.6 44 6.7 77 77 NE 7 11 29.85 1011 10 16 0.00 0.00
4:54 am 04:54 Mostly Clear 49 9.4 43 6.1 80 80 NNE 7 11 29.83 1010 10 16 0.00 0.00
5:54 am 05:54 Mostly Sunny 50 10 44 6.7 80 80 N 6 9 29.82 1010 10 16 0.00 0.00
6:54 am 06:54 Mostly Sunny 57 13.9 46 7.8 67 67 N 6 9 29.83 1010 10 16 0.00 0.00
7:54 am 07:54 Sunny 66 18.9 50 10 56 56 NE 5 7 29.82 1010 10 16 0.00 0.00
8:54 am 08:54 Mostly Sunny 73 22.8 37 2.8 27 27 Calm 29.80 1009 10 16 0.00 0.00
9:54 am 09:54 Mostly Sunny 76 24.4 39 3.9 26 26 E 3 6 29.78 1009 10 16 0.00 0.00
10:54 am 10:54 Partly Cloudy 79 26.1 37 2.8 22 22 VRB 5 7 29.76 1008 10 16 0.00 0.00
11:54 am 11:54 Partly Cloudy 81 27.2 35 1.7 19 19 SE 9 15 29.73 1007 10 16 0.00 0.00
12:54 pm 12:54 Partly Cloudy 83 28.3 35 1.7 18 18 ESE 13 20 29.72 1007 10 16 0.00 0.00
1:54 pm 13:54 Partly Cloudy 84 28.9 34 1.1 17 17 ESE 16 26 29.69 1005 10 16 0.00 0.00
2:22 pm 14:22 Partly Cloudy 88 31 34 1 15 15 S 22 35 29.38 995 10 16 0.00 0.00
2:54 pm 14:54 Partly Cloudy 84 28.9 30 -1.1 14 14 S 21 33 29.68 1005 10 16 0.00 0.00
3:54 pm 15:54 Partly Cloudy 87 30.6 30 -1.1 13 13 S 15 24 29.66 1004 10 16 0.00 0.00
4:54 pm 16:54 Partly Cloudy 87 30.6 30 -1.1 13 13 S 22 35 29.66 1004 10 16 0.00 0.00
5:54 pm 17:54 Partly Cloudy 86 30 30 -1.1 13 13 SE 22 35 29.65 1004 10 16 0.00 0.00
6:54 pm 18:54 Partly Cloudy 83 28.3 32 0 16 16 SE 21 33 29.64 1004 10 16 0.00 0.00
7:54 pm 19:54 Mostly Sunny 78 25.6 34 1.1 20 20 ESE 17 28 29.63 1003 10 16 0.00 0.00
8:54 pm 20:54 Mostly Clear 76 24.4 36 2.2 23 23 SSE 12 19 29.62 1003 10 16 0.00 0.00
9:54 pm 21:54 Mostly Clear 71 21.7 40 4.4 32 32 E 8 13 29.65 1004 10 16 0.00 0.00
10:54 pm 22:54 Clear 62 16.7 45 7.2 54 54 NNE 9 15 29.67 1005 10 16 0.00 0.00
11:54 pm 23:54 Clear 57 13.9 45 7.2 64 64 NNE 10 17 29.67 1005 10 16 0.00 0.00

Powered by AerisWeather